Tracking 17558 objects as of 9-February-2016
HD Live streaming from Space Station
objects crossing your sky now

COSMOS 1015

Track COSMOS 1015 now!
10-day predictions
COSMOS 1015 is classified as:


NORAD ID: 10932
Int'l Code: 1978-056C
Perigee: 1,480.4 km
Apogee: 1,523.7 km
Inclination: 74.0 °
Period: 115.9 minutes
Semi major axis: 7873 km
RCS: 0.7013 m2 (medium)
Launch date: June 7, 1978
Source: Commonwealth of Independent States (former USSR) (CIS)
Launch site: PLESETSK MISSILE AND SPACE COMPLEX (PKMTR)
Your satellite tracking list
Your tracking list is empty





NASA's NSSDC Master Catalog

Two Line Element Set (TLE):
1 10932U 78056C   16039.18167981 -.00000030  00000-0 -10453-3 0  9992
2 10932  74.0249 195.2999 0027512 341.4519 128.5260 12.4276730679245
Source of the keplerian elements: AFSPC

N2YO: 1052